| time (UTC) | temp F | wind direction | speed MPH | gust MPH | rain 1hr in | rain 24hr in | rain mn in | humidity % | barometer mb |
| 20260504173005 | 64 | 57 | 3.0 | 4.0 | 0.00 | 0.00 | 0.00 | 36 | 1017.7 |
| 20260504172505 | 64 | 54 | 3.0 | 4.0 | 0.00 | 0.00 | 0.00 | 36 | 1017.7 |
| 20260504171005 | 65 | 79 | 4.0 | 5.0 | 0.00 | 0.00 | 0.00 | 35 | 1017.6 |
| 20260504170504 | 65 | 86 | 5.0 | 7.0 | 0.00 | 0.00 | 0.00 | 35 | 1017.4 |
| 20260504151004 | 72 | 121 | 5.0 | 11.0 | 0.00 | 0.00 | 0.00 | 28 | 1017.4 |
| 20260504150504 | 71 | 113 | 6.0 | 11.0 | 0.00 | 0.00 | 0.00 | 27 | 1017.7 |
| 20260504141004 | 72 | 291 | 7.0 | 11.0 | 0.00 | 0.00 | 0.00 | 20 | 1017.7 |
| 20260504140504 | 72 | 288 | 6.0 | 9.0 | 0.00 | 0.00 | 0.00 | 20 | 1017.6 |
| 20260504130504 | 71 | 244 | 6.0 | 8.0 | 0.00 | 0.00 | 0.00 | 24 | 1018.0 |
| 20260504110505 | 68 | 286 | 9.0 | 13.0 | 0.00 | 0.00 | 0.00 | 24 | 1019.2 |
| 20260504100505 | 67 | 319 | 10.0 | 16.0 | 0.00 | 0.04 | 0.00 | 20 | 1019.6 |
| 20260504082005 | 64 | 296 | 7.0 | 9.0 | 0.00 | 0.06 | 0.00 | 31 | 1019.8 |
| 20260504081504 | 64 | 270 | 7.0 | 9.0 | 0.00 | 0.06 | 0.00 | 33 | 1020.1 |
| 20260504081005 | 64 | 310 | 6.0 | 7.0 | 0.00 | 0.06 | 0.00 | 35 | 1019.9 |
| 20260504080505 | 64 | 335 | 7.0 | 11.0 | 0.00 | 0.06 | 0.00 | 33 | 1020.0 |
| 20260504050504 | 49 | 6 | 2.0 | 3.0 | 0.00 | 0.06 | 0.00 | 65 | 1019.8 |
| 20260504045505 | 50 | 188 | 3.0 | 4.0 | 0.00 | 0.06 | 0.00 | 67 | 1019.9 |
| 20260504045004 | 50 | 96 | 3.0 | 4.0 | 0.00 | 0.06 | 0.00 | 67 | 1019.7 |
| 20260504044504 | 49 | 108 | 2.0 | 4.0 | 0.00 | 0.06 | 0.00 | 68 | 1019.7 |
| 20260504044005 | 49 | 128 | 2.0 | 3.0 | 0.00 | 0.06 | 0.00 | 67 | 1019.6 |
| 20260504043504 | 49 | 223 | 2.0 | 3.0 | 0.00 | 0.06 | 0.00 | 66 | 1019.5 |
| 20260504043004 | 49 | 214 | 2.0 | 3.0 | 0.00 | 0.06 | 0.00 | 66 | 1019.5 |
| 20260504042505 | 49 | 188 | 1.0 | 2.0 | 0.00 | 0.06 | 0.00 | 65 | 1019.5 |
| 20260504042005 | 49 | 83 | 1.0 | 2.0 | 0.00 | 0.06 | 0.00 | 65 | 1019.5 |
| 20260504041504 | 49 | 80 | 2.0 | 2.0 | 0.00 | 0.06 | 0.00 | 65 | 1019.5 |
| 20260504041004 | 49 | 49 | 1.0 | 2.0 | 0.00 | 0.06 | 0.00 | 65 | 1019.4 |
| 20260504040005 | 48 | 359 | 2.0 | 3.0 | 0.00 | 0.06 | 0.00 | 66 | 1019.3 |
| 20260504035505 | 48 | 333 | 2.0 | 3.0 | 0.00 | 0.06 | 0.00 | 65 | 1019.3 |
| 20260504035005 | 48 | 309 | 2.0 | 3.0 | 0.00 | 0.06 | 0.00 | 65 | 1019.2 |
| 20260504034504 | 48 | 326 | 1.0 | 2.0 | 0.00 | 0.06 | 0.00 | 65 | 1019.0 |
| 20260504034005 | 48 | 342 | 2.0 | 3.0 | 0.00 | 0.06 | 0.00 | 65 | 1019.2 |
| 20260504033007 | 48 | 254 | 2.0 | 3.0 | 0.00 | 0.06 | 0.00 | 65 | 1019.0 |
| 20260504032505 | 48 | 278 | 2.0 | 3.0 | 0.00 | 0.06 | 0.00 | 65 | 1018.9 |
| 20260504031504 | 48 | 308 | 1.0 | 2.0 | 0.00 | 0.06 | 0.00 | 65 | 1019.0 |
| 20260504031005 | 48 | 270 | 0.0 | 1.0 | 0.00 | 0.06 | 0.00 | 65 | 1018.8 |
| 20260504030504 | 48 | 270 | 1.0 | 1.0 | 0.00 | 0.06 | 0.00 | 65 | 1018.9 |
| 20260504025505 | 48 | 281 | 1.0 | 3.0 | 0.00 | 0.06 | 0.00 | 65 | 1018.9 |
| 20260504025005 | 48 | 309 | 1.0 | 3.0 | 0.00 | 0.06 | 0.00 | 65 | 1019.0 |
| 20260504024504 | 48 | 351 | 1.0 | 3.0 | 0.00 | 0.06 | 0.00 | 66 | 1018.9 |
| 20260504024005 | 48 | 347 | 1.0 | 2.0 | 0.00 | 0.06 | 0.00 | 66 | 1018.9 |
| 20260504023506 | 48 | 99 | 1.0 | 2.0 | 0.00 | 0.06 | 0.00 | 66 | 1018.8 |
| 20260504023005 | 48 | 72 | 2.0 | 3.0 | 0.00 | 0.06 | 0.00 | 66 | 1018.7 |
| 20260504022504 | 48 | 67 | 2.0 | 3.0 | 0.00 | 0.06 | 0.00 | 65 | 1018.7 |
| 20260504022005 | 49 | 55 | 2.0 | 3.0 | 0.00 | 0.06 | 0.00 | 64 | 1018.7 |
| 20260504021505 | 49 | 46 | 2.0 | 3.0 | 0.00 | 0.06 | 0.00 | 63 | 1018.6 |
| 20260504021004 | 49 | 1 | 2.0 | 3.0 | 0.00 | 0.06 | 0.00 | 63 | 1018.8 |
| 20260504020505 | 49 | 250 | 2.0 | 3.0 | 0.00 | 0.06 | 0.00 | 62 | 1018.8 |
| 20260504020005 | 49 | 207 | 1.0 | 3.0 | 0.00 | 0.06 | 0.00 | 65 | 1018.6 |
| 20260504014505 | 49 | 166 | 1.0 | 1.0 | 0.00 | 0.06 | 0.00 | 65 | 1018.8 |
| 20260504013504 | 49 | 262 | 1.0 | 1.0 | 0.00 | 0.06 | 0.00 | 65 | 1018.6 |
| 20260504013005 | 49 | 310 | 1.0 | 3.0 | 0.00 | 0.06 | 0.00 | 65 | 1018.7 |
| 20260504012505 | 49 | 294 | 2.0 | 3.0 | 0.00 | 0.06 | 0.00 | 65 | 1018.7 |
| 20260504012004 | 49 | 273 | 1.0 | 3.0 | 0.00 | 0.06 | 0.00 | 66 | 1018.7 |
| 20260504011505 | 49 | 310 | 1.0 | 2.0 | 0.00 | 0.06 | 0.00 | 66 | 1018.7 |
| 20260504010005 | 48 | 142 | 2.0 | 3.0 | 0.00 | 0.06 | 0.00 | 66 | 1018.7 |
| 20260504004504 | 49 | 63 | 1.0 | 3.0 | 0.00 | 0.06 | 0.00 | 66 | 1018.7 |
| 20260504004005 | 49 | 159 | 1.0 | 2.0 | 0.00 | 0.06 | 0.00 | 66 | 1018.7 |
| 20260504003505 | 49 | 187 | 1.0 | 2.0 | 0.00 | 0.06 | 0.00 | 66 | 1018.6 |
| 20260504003005 | 49 | 106 | 1.0 | 2.0 | 0.00 | 0.06 | 0.00 | 65 | 1018.4 |
| 20260504002505 | 49 | 82 | 1.0 | 2.0 | 0.00 | 0.06 | 0.00 | 66 | 1018.3 |
| 20260504002004 | 49 | 74 | 1.0 | 1.0 | 0.00 | 0.06 | 0.00 | 66 | 1018.5 |
| 20260504001505 | 49 | 8 | 1.0 | 3.0 | 0.00 | 0.06 | 0.00 | 67 | 1018.4 |
| 20260504001005 | 49 | 33 | 1.0 | 3.0 | 0.00 | 0.06 | 0.00 | 66 | 1018.5 |
| 20260504000005 | 49 | 2 | 1.0 | 1.0 | 0.00 | 0.06 | 0.00 | 66 | 1018.7 |
| 20260503235504 | 49 | 25 | 1.0 | 1.0 | 0.00 | 0.06 | 0.00 | 66 | 1018.7 |
| 20260503235004 | 49 | 119 | 1.0 | 1.0 | 0.00 | 0.06 | 0.00 | 65 | 1018.6 |
| 20260503234505 | 49 | 224 | 1.0 | 2.0 | 0.00 | 0.06 | 0.00 | 65 | 1018.8 |
| 20260503234005 | 49 | 248 | 1.0 | 2.0 | 0.00 | 0.06 | 0.00 | 65 | 1018.8 |
| 20260503233504 | 49 | 291 | 2.0 | 2.0 | 0.00 | 0.06 | 0.00 | 65 | 1018.8 |
| 20260503233005 | 49 | 282 | 2.0 | 2.0 | 0.00 | 0.06 | 0.00 | 65 | 1018.8 |
| 20260503232505 | 49 | 253 | 2.0 | 3.0 | 0.00 | 0.06 | 0.00 | 65 | 1018.8 |
| 20260503232005 | 49 | 239 | 3.0 | 3.0 | 0.00 | 0.06 | 0.00 | 64 | 1019.0 |
| 20260503231505 | 49 | 215 | 3.0 | 5.0 | 0.00 | 0.06 | 0.00 | 64 | 1019.0 |
| 20260503231004 | 49 | 205 | 3.0 | 5.0 | 0.00 | 0.06 | 0.00 | 63 | 1019.0 |
| 20260503230510 | 50 | 222 | 2.0 | 4.0 | 0.00 | 0.06 | 0.00 | 63 | 1018.9 |
| 20260503230004 | 50 | 255 | 1.0 | 3.0 | 0.00 | 0.06 | 0.00 | 63 | 1018.9 |
| 20260503225505 | 50 | 244 | 1.0 | 3.0 | 0.00 | 0.06 | 0.00 | 63 | 1019.0 |
| 20260503225006 | 50 | 202 | 2.0 | 4.0 | 0.00 | 0.06 | 0.00 | 61 | 1019.1 |
| 20260503224504 | 51 | 218 | 2.0 | 4.0 | 0.00 | 0.06 | 0.00 | 60 | 1019.1 |
| 20260503223505 | 51 | 276 | 4.0 | 7.0 | 0.00 | 0.06 | 0.00 | 59 | 1019.1 |
| 20260503223004 | 51 | 235 | 4.0 | 7.0 | 0.00 | 0.06 | 0.00 | 60 | 1019.2 |
| 20260503222505 | 51 | 203 | 3.0 | 4.0 | 0.00 | 0.06 | 0.00 | 62 | 1019.1 |
| 20260503222005 | 51 | 321 | 3.0 | 6.0 | 0.00 | 0.06 | 0.00 | 61 | 1019.2 |
| 20260503221504 | 51 | 325 | 4.0 | 6.0 | 0.00 | 0.06 | 0.00 | 62 | 1019.1 |
| 20260503221005 | 51 | 338 | 4.0 | 6.0 | 0.00 | 0.06 | 0.00 | 63 | 1019.3 |
| 20260503220504 | 50 | 341 | 3.0 | 5.0 | 0.00 | 0.06 | 0.00 | 65 | 1019.3 |
| 20260503220009 | 50 | 242 | 2.0 | 5.0 | 0.00 | 0.06 | 0.00 | 66 | 1019.2 |
| 20260503215508 | 50 | 246 | 2.0 | 5.0 | 0.00 | 0.06 | 0.00 | 66 | 1019.2 |
| 20260503215008 | 50 | 272 | 1.0 | 2.0 | 0.00 | 0.06 | 0.00 | 67 | 1019.1 |
| 20260503214508 | 50 | 271 | 1.0 | 3.0 | 0.00 | 0.06 | 0.00 | 67 | 1019.2 |
| 20260503214007 | 49 | 263 | 2.0 | 5.0 | 0.00 | 0.06 | 0.00 | 67 | 1019.1 |
| 20260503213508 | 49 | 267 | 4.0 | 5.0 | 0.00 | 0.06 | 0.00 | 67 | 1019.0 |
| 20260503213008 | 49 | 262 | 4.0 | 5.0 | 0.00 | 0.06 | 0.00 | 67 | 1019.3 |
| 20260503212511 | 49 | 239 | 3.0 | 5.0 | 0.00 | 0.06 | 0.00 | 67 | 1019.3 |
| 20260503212008 | 49 | 245 | 4.0 | 5.0 | 0.00 | 0.06 | 0.00 | 67 | 1019.3 |
| 20260503211507 | 50 | 242 | 4.0 | 6.0 | 0.00 | 0.06 | 0.00 | 66 | 1019.3 |
| 20260503211008 | 50 | 223 | 4.0 | 6.0 | 0.00 | 0.06 | 0.00 | 66 | 1019.3 |
| 20260503210508 | 50 | 32 | 2.0 | 5.0 | 0.00 | 0.06 | 0.00 | 67 | 1019.1 |
| 20260503205508 | 50 | 271 | 2.0 | 4.0 | 0.00 | 0.06 | 0.06 | 68 | 1019.4 |
| 20260503204509 | 50 | 233 | 3.0 | 5.0 | 0.00 | 0.06 | 0.06 | 67 | 1019.4 |
| 20260503204008 | 50 | 223 | 3.0 | 6.0 | 0.00 | 0.06 | 0.06 | 67 | 1019.5 |
| 20260503203508 | 51 | 242 | 3.0 | 6.0 | 0.00 | 0.06 | 0.06 | 67 | 1019.4 |
| 20260503203008 | 51 | 298 | 2.0 | 4.0 | 0.00 | 0.06 | 0.06 | 68 | 1019.5 |
| 20260503202508 | 50 | 238 | 4.0 | 5.0 | 0.00 | 0.06 | 0.06 | 68 | 1019.5 |
| 20260503202007 | 51 | 223 | 4.0 | 6.0 | 0.00 | 0.06 | 0.06 | 67 | 1019.4 |
| 20260503201508 | 51 | 214 | 4.0 | 6.0 | 0.00 | 0.06 | 0.06 | 65 | 1019.5 |
| 20260503201008 | 52 | 218 | 3.0 | 5.0 | 0.00 | 0.06 | 0.06 | 63 | 1019.6 |
| 20260503200508 | 52 | 235 | 4.0 | 5.0 | 0.00 | 0.06 | 0.06 | 59 | 1019.4 |
| 20260503200008 | 53 | 245 | 5.0 | 7.0 | 0.00 | 0.06 | 0.06 | 59 | 1019.5 |
| 20260503195508 | 53 | 254 | 5.0 | 7.0 | 0.00 | 0.06 | 0.06 | 58 | 1019.5 |
| 20260503195008 | 53 | 275 | 5.0 | 7.0 | 0.00 | 0.06 | 0.06 | 58 | 1019.6 |
| 20260503194508 | 53 | 359 | 5.0 | 11.0 | 0.00 | 0.06 | 0.06 | 57 | 1019.4 |
| 20260503194008 | 53 | 15 | 6.0 | 11.0 | 0.00 | 0.06 | 0.06 | 57 | 1019.5 |
| 20260503193510 | 53 | 10 | 5.0 | 9.0 | 0.00 | 0.06 | 0.06 | 57 | 1019.5 |
| 20260503192508 | 53 | 1 | 5.0 | 8.0 | 0.00 | 0.06 | 0.06 | 57 | 1019.5 |
| 20260503192008 | 54 | 2 | 7.0 | 9.0 | 0.00 | 0.06 | 0.06 | 56 | 1019.5 |
| 20260503191507 | 54 | 14 | 6.0 | 9.0 | 0.00 | 0.06 | 0.06 | 56 | 1019.5 |
| 20260503191008 | 54 | 10 | 6.0 | 9.0 | 0.00 | 0.06 | 0.06 | 54 | 1019.5 |
| 20260503190008 | 55 | 328 | 9.0 | 11.0 | 0.00 | 0.06 | 0.06 | 54 | 1019.5 |
| 20260503185008 | 54 | 353 | 8.0 | 11.0 | 0.00 | 0.06 | 0.06 | 57 | 1019.2 |
| 20260503184508 | 54 | 2 | 8.0 | 9.0 | 0.00 | 0.06 | 0.06 | 57 | 1019.4 |
| 20260503184013 | 54 | 7 | 6.0 | 9.0 | 0.00 | 0.06 | 0.06 | 57 | 1019.3 |
| 20260503183508 | 54 | 4 | 6.0 | 8.0 | 0.00 | 0.06 | 0.06 | 57 | 1019.5 |
| 20260503183008 | 54 | 357 | 7.0 | 11.0 | 0.00 | 0.06 | 0.06 | 57 | 1019.2 |
| 20260503182507 | 54 | 6 | 9.0 | 11.0 | 0.00 | 0.06 | 0.06 | 55 | 1019.4 |
| 20260503181508 | 55 | 23 | 6.0 | 8.0 | 0.00 | 0.06 | 0.06 | 54 | 1019.0 |
| 20260503181008 | 56 | 353 | 5.0 | 7.0 | 0.00 | 0.06 | 0.06 | 52 | 1019.0 |
| 20260503180508 | 56 | 326 | 5.0 | 6.0 | 0.00 | 0.06 | 0.06 | 50 | 1019.1 |
| 20260503180008 | 56 | 323 | 5.0 | 6.0 | 0.00 | 0.06 | 0.06 | 50 | 1019.0 |
| 20260503175508 | 57 | 299 | 5.0 | 7.0 | 0.00 | 0.06 | 0.06 | 51 | 1019.0 |
| 20260503175008 | 56 | 290 | 4.0 | 7.0 | 0.00 | 0.06 | 0.06 | 51 | 1018.8 |
| 20260503173508 | 57 | 289 | 2.0 | 3.0 | 0.00 | 0.06 | 0.06 | 51 | 1018.7 |